Wind_Speed
95 94 93 92 92 91 90 89 88 87 86 84 83 81 80 78 76 74 72 69 66 64 61 60 59 58 59 59 60 61 62 63 64 65 65 66 66 65 64 62 61 60 59 59 59 59 58 58 58 57 57 56 56 55 55 54 53 52 51 49 48 47 47 46 45 44 43 43 42 42 42 42 41 41 41 40 40 39 39 39 39 38 38 38 37 37
94 93 92 91 91 90 89 88 86 85 83 82 80 78 77 75 73 71 68 65 63 61 59 58 57 57 58 59 60 61 62 63 64 65 65 66 66 65 63 62 61 60 60 60 60 59 59 59 59 58 58 57 57 56 55 55 54 53 52 50 49 48 47 46 45 44 43 42 42 42 41 41 41 41 40 40 39 39 38 38 38 38 37 37 36 36
93 92 91 90 89 87 86 85 84 82 80 78 77 75 73 71 69 67 64 62 60 58 57 56 56 57 58 59 60 61 62 63 64 65 65 66 66 65 63 61 60 60 60 60 60 60 60 60 60 59 59 58 57 57 56 55 54 54 52 51 50 49 47 46 45 44 43 43 42 41 41 41 40 40 40 39 39 38 38 38 37 37 37 36 36 35
91 90 89 88 86 85 83 82 81 79 77 75 74 72 70 67 65 63 61 59 57 56 56 56 56 57 58 59 60 61 63 64 64 65 66 66 65 64 62 61 60 60 61 61 61 61 61 61 61 61 60 59 59 58 57 56 55 54 53 52 50 49 48 47 46 45 44 43 42 41 41 40 40 40 39 39 39 38 38 37 37 36 36 36 35 34
89 88 86 85 84 82 81 79 77 76 74 72 70 68 66 63 61 59 58 56 55 55 55 55 56 57 58 59 60 62 63 64 65 65 66 66 65 64 62 61 60 61 61 61 61 62 62 62 62 62 61 61 60 59 58 57 56 55 54 52 51 49 48 47 46 45 44 43 42 41 40 40 40 39 39 39 38 38 37 37 36 36 36 35 35 34
86 85 83 82 80 79 78 76 74 73 71 69 67 65 62 60 58 56 55 54 54 54 54 55 56 57 58 59 61 62 63 64 65 65 66 66 65 63 62 61 61 61 61 62 62 62 63 63 63 63 63 62 61 60 59 58 57 55 54 53 51 50 48 47 46 45 44 43 42 41 41 40 40 39 39 38 38 38 37 36 36 36 35 35 34 34
84 82 81 79 78 76 75 73 71 70 68 66 63 61 59 57 55 54 53 53 53 54 54 55 56 57 59 60 61 63 64 64 65 66 66 66 64 63 61 61 61 61 62 62 63 63 64 64 64 64 63 63 62 61 60 59 58 56 55 53 52 50 48 47 46 45 44 44 43 42 41 40 40 39 39 38 38 37 37 36 36 35 35 35 34 34
81 80 78 76 75 73 72 70 69 66 64 62 60 58 56 54 53 52 52 52 53 53 54 56 57 58 59 61 62 63 64 65 65 66 66 65 64 62 61 61 61 62 62 63 63 64 64 64 65 64 64 64 63 62 61 60 58 57 55 54 52 50 49 47 46 45 45 44 43 43 42 41 40 40 39 39 38 38 37 37 36 36 35 35 34 34
78 77 75 74 72 71 69 68 66 63 61 59 56 54 53 52 51 51 51 52 53 53 54 56 57 59 60 62 63 64 64 65 66 66 66 65 63 62 61 61 61 62 62 63 64 64 65 65 65 65 64 64 63 62 61 60 59 57 55 54 52 50 49 47 46 45 45 44 44 43 42 42 41 40 39 39 38 38 37 37 36 36 35 35 35 34
75 74 73 71 70 68 66 65 63 61 58 56 54 52 50 49 49 50 51 52 53 54 55 56 58 60 61 62 63 64 65 65 66 66 66 64 63 62 61 61 61 62 63 63 64 64 65 65 65 65 65 64 64 63 61 60 58 57 55 53 51 50 48 47 46 45 45 44 44 44 43 42 42 41 40 40 39 38 38 37 37 37 36 36 35 35
73 72 70 69 68 66 64 61 60 58 55 53 51 50 49 49 49 49 50 52 53 55 56 57 58 60 62 63 64 65 65 66 66 66 65 64 62 61 61 61 62 62 63 64 64 65 65 65 65 65 65 64 64 63 61 60 58 56 54 52 51 49 48 47 46 45 45 44 44 44 43 43 42 42 41 40 40 39 39 38 38 37 37 36 36 36
71 69 68 67 65 63 61 59 57 55 52 50 49 48 48 49 49 50 51 52 54 55 57 58 59 61 62 64 65 66 66 66 66 66 65 63 62 62 62 62 63 63 64 64 65 65 65 66 66 65 65 64 64 62 61 59 57 55 53 52 50 49 47 46 45 45 44 44 44 44 44 43 43 42 42 41 41 40 40 39 39 38 38 38 37 37
68 67 66 64 62 60 58 56 54 52 50 48 47 46 47 49 50 51 52 53 55 56 57 59 61 62 63 64 65 66 66 67 66 66 64 63 63 62 63 63 63 64 64 65 65 66 66 66 66 66 65 64 63 62 60 59 57 55 53 51 49 48 47 46 45 44 44 44 44 44 44 44 43 43 43 42 42 41 41 40 40 39 39 39 38 38
66 65 63 61 59 57 55 53 51 49 47 47 46 47 48 49 50 51 53 54 56 57 58 60 62 63 64 65 65 66 66 67 66 65 64 63 63 63 63 64 64 64 65 66 66 67 67 67 66 66 65 64 63 62 60 58 56 54 52 50 49 47 46 45 45 44 44 43 43 43 44 44 44 43 43 43 42 42 42 41 41 41 40 40 40 39
64 62 60 58 56 54 52 50 48 47 46 46 47 48 49 50 51 52 53 55 57 58 60 62 63 64 65 66 66 66 67 66 66 65 64 64 63 64 64 64 65 65 66 66 67 67 67 67 67 66 66 64 63 61 59 57 55 53 51 50 48 47 46 45 44 44 43 43 43 43 43 44 44 44 44 43 43 43 43 42 42 42 42 41 41 41
61 59 57 56 54 52 50 48 47 46 46 47 47 48 49 50 52 53 54 56 58 59 61 63 64 66 66 66 66 67 67 66 66 65 64 64 64 64 64 65 66 66 67 67 68 68 68 68 67 67 66 64 63 61 59 56 54 52 51 49 48 47 46 45 44 44 44 43 43 43 43 44 44 44 44 44 44 44 44 43 43 43 43 43 42 42
58 56 55 53 52 50 48 47 46 46 46 47 48 49 50 51 52 54 55 57 59 61 62 64 65 66 67 68 68 67 67 66 65 64 64 64 65 65 65 65 66 67 68 68 68 69 68 68 68 67 66 64 62 60 58 56 54 52 50 49 48 47 46 45 45 44 44 44 43 43 44 44 44 44 44 45 45 45 45 44 44 44 44 44 44 44
55 54 52 51 49 48 47 46 46 46 46 47 48 49 50 52 53 55 56 58 60 62 63 64 65 67 68 69 69 68 67 66 65 65 64 65 65 65 66 66 67 68 68 69 69 69 69 69 68 67 66 64 62 60 57 55 53 52 50 49 48 47 46 46 45 45 44 44 44 44 44 44 44 45 45 45 45 45 46 46 46 46 45 45 45 45
53 51 50 48 47 46 46 46 46 46 47 48 49 50 52 53 55 56 58 60 61 63 64 65 66 67 68 68 69 68 67 66 65 65 65 65 66 66 66 67 68 68 69 70 70 70 69 69 68 67 65 63 61 59 57 55 53 51 50 49 48 47 47 46 46 45 45 45 45 45 45 45 45 45 46 46 46 46 47 47 47 47 47 47 47 47
51 49 47 46 46 45 46 46 47 47 48 49 50 51 53 54 56 58 60 61 63 64 65 66 67 68 68 68 68 68 67 66 65 65 66 66 66 67 67 68 68 69 70 70 70 70 70 69 68 66 65 63 61 58 56 54 53 52 50 50 49 48 48 47 47 46 46 46 46 46 46 46 46 47 47 47 47 48 48 48 48 48 48 48 48 48
48 47 46 46 45 45 46 47 47 48 48 49 51 53 54 56 58 59 61 62 64 65 66 67 67 68 68 68 68 68 67 66 66 66 66 67 67 68 68 68 69 70 71 71 71 70 70 69 68 66 64 62 60 58 56 54 53 52 51 50 50 49 49 48 48 48 47 47 47 47 47 48 48 48 48 49 49 49 49 49 49 49 49 50 50 50
46 46 46 46 46 46 46 47 48 48 49 51 52 54 56 57 59 61 62 64 65 66 67 67 68 68 68 68 68 67 67 66 66 66 67 68 68 69 69 69 70 71 71 71 71 70 70 69 67 65 63 61 59 58 56 55 53 53 52 51 51 50 50 50 49 49 49 49 49 49 49 49 49 50 50 50 50 50 51 51 51 51 51 51 51 51
46 45 46 46 46 46 47 47 48 49 50 52 54 56 57 59 60 62 63 65 66 67 67 68 68 68 68 68 67 67 66 66 66 67 68 69 69 70 70 71 71 72 72 72 71 71 70 68 67 65 63 61 59 57 56 55 54 54 53 52 52 52 51 51 51 51 51 51 51 51 51 51 51 51 51 52 52 52 52 52 52 53 53 53 53 53
45 45 46 46 46 46 47 48 49 51 52 54 55 57 59 60 61 63 64 65 67 67 68 68 68 68 68 67 67 67 67 66 67 67 68 69 70 71 71 72 72 73 73 72 71 71 69 68 66 64 62 60 59 58 57 56 55 55 54 54 53 53 53 53 52 52 52 52 52 52 53 53 53 53 53 53 53 54 54 54 54 54 54 54 54 54
45 45 45 46 46 47 48 49 51 52 54 56 57 59 60 61 63 64 65 66 67 68 68 68 68 68 68 67 67 67 67 67 67 68 69 70 71 72 72 73 73 73 73 72 71 70 69 67 65 63 61 60 59 58 57 57 56 56 55 55 55 54 54 54 54 54 54 54 54 54 54 54 54 54 55 55 55 55 55 55 55 55 56 56 56 56
45 45 45 46 47 48 49 51 52 54 56 57 59 60 61 62 64 65 66 67 68 68 68 68 68 68 68 67 67 68 68 68 68 69 70 71 72 73 73 73 73 73 73 72 71 70 68 66 65 63 61 60 59 59 58 58 57 57 57 56 56 56 55 55 55 55 55 55 55 55 55 56 56 56 56 56 56 56 56 56 56 57 57 57 57 57
45 46 46 47 48 50 51 53 54 56 58 59 60 61 62 64 65 66 67 68 68 68 68 68 68 68 68 67 68 68 69 69 70 70 71 72 73 74 74 74 73 73 73 72 70 69 67 66 64 62 61 60 60 59 59 59 58 58 58 57 57 56 56 56 56 56 56 56 56 56 57 57 57 57 57 57 57 57 57 57 57 58 58 58 58 58
46 47 48 49 50 52 53 55 56 58 59 60 61 62 64 64 66 67 67 68 67 67 68 68 68 68 68 68 68 69 69 70 71 71 72 73 74 74 74 74 73 73 72 71 69 68 66 65 63 62 61 61 60 60 60 59 59 59 58 58 57 57 57 57 56 56 56 57 57 57 57 57 58 58 58 58 58 58 58 58 59 59 59 59 59 59
47 48 50 51 53 54 55 57 58 59 60 62 63 64 65 65 66 67 67 67 67 67 68 68 68 68 68 68 69 69 70 71 72 72 73 73 74 74 74 74 73 72 71 70 68 67 65 64 63 62 61 61 60 60 60 60 59 59 59 58 58 58 57 57 57 57 57 57 57 58 58 58 58 59 59 59 59 59 60 60 60 60 60 60 60 60
49 51 52 53 55 56 57 58 60 61 62 63 64 65 66 66 66 67 67 67 67 67 68 68 68 68 68 69 70 70 71 72 72 73 73 74 75 74 74 73 72 71 70 69 68 66 65 63 62 61 61 61 61 60 60 60 60 59 59 59 58 58 58 58 58 58 58 58 58 58 59 59 59 60 60 60 60 61 61 61 61 61 61 61 61 61
52 53 54 56 57 58 59 60 61 62 63 64 65 65 66 67 67 67 67 67 67 67 67 68 68 68 69 69 70 71 72 73 73 73 73 74 74 74 73 73 72 70 68 67 66 66 65 64 62 61 61 61 60 60 60 60 60 60 59 59 59 59 59 59 59 59 59 59 59 59 60 60 60 60 61 61 61 62 62 62 62 62 63 63 63 63
54 56 57 58 59 59 60 61 62 63 64 65 65 66 66 67 67 67 67 67 67 67 67 68 68 69 69 70 71 72 73 74 74 74 74 74 74 73 72 71 70 69 67 66 65 65 65 64 63 62 61 61 60 60 60 60 60 60 60 60 60 61 60 61 61 61 61 61 61 61 61 61 61 61 62 62 62 62 63 63 63 63 64 64 64 64
56 57 58 59 60 60 61 62 63 64 65 65 66 66 67 67 67 67 67 66 67 67 67 68 69 69 70 71 72 73 73 74 74 74 74 74 73 73 71 70 69 68 66 65 64 64 64 64 63 62 62 61 61 61 61 61 61 61 61 61 62 62 62 62 62 63 63 63 62 62 62 62 62 62 62 62 62 63 63 63 63 64 64 64 64 64
58 59 59 60 61 61 62 63 64 65 65 66 66 66 66 66 66 66 66 66 67 67 68 68 69 70 71 72 73 73 74 74 74 74 73 73 72 72 70 69 68 67 66 65 64 64 64 64 64 63 63 62 62 61 61 62 62 62 62 63 63 64 64 64 64 64 64 64 64 64 63 63 63 63 62 62 62 63 63 63 63 63 64 64 64 64
59 60 60 61 62 62 63 64 65 65 66 66 66 66 66 66 66 66 66 67 67 68 68 69 70 71 72 72 73 74 74 74 74 73 73 72 71 70 69 68 67 66 65 65 65 65 65 65 64 64 64 64 63 63 63 63 63 63 64 64 64 65 65 65 65 65 65 65 64 64 64 63 63 63 63 63 62 63 62 63 63 63 63 63 63 62
60 60 61 62 63 64 65 65 66 66 66 66 65 65 65 65 65 66 66 67 68 68 69 70 70 71 72 72 73 74 74 73 73 73 72 71 70 69 68 67 66 65 65 65 65 65 65 66 66 66 66 65 65 65 64 64 64 64 64 65 65 65 65 65 65 65 65 65 65 64 64 64 63 63 63 63 62 62 62 62 62 61 61 61 61 60
61 62 63 63 64 65 66 66 66 66 65 65 65 65 65 65 66 66 67 67 68 69 70 71 71 72 72 73 73 73 73 73 72 71 70 69 68 67 67 66 65 65 65 65 66 66 66 67 67 67 67 67 67 66 66 65 65 65 65 65 65 65 65 65 65 65 65 65 65 64 64 64 63 63 63 62 62 62 61 60 60 59 59 59 58 58
62 63 64 64 65 66 66 66 66 65 65 64 65 65 65 66 66 67 68 68 69 70 71 71 72 73 73 73 72 72 72 71 71 70 69 68 67 66 66 66 65 65 65 66 67 67 68 68 68 69 68 68 68 67 66 66 65 65 65 65 65 65 65 65 65 65 64 64 64 64 64 63 63 63 62 62 61 60 60 59 58 57 56 56 55 55
63 64 65 65 66 66 65 65 65 64 64 64 65 65 66 67 67 68 68 69 70 70 71 72 72 72 73 72 72 72 71 70 69 69 68 67 66 66 66 66 66 66 66 67 67 68 69 69 69 70 69 69 68 68 67 66 66 65 65 65 65 65 64 64 64 64 64 64 64 63 63 63 62 62 61 60 59 58 58 57 55 54 54 53 53 52
64 65 65 65 65 65 64 64 64 64 64 65 66 66 67 67 68 69 69 70 70 71 71 72 72 72 72 72 71 71 70 69 68 67 66 66 66 66 66 66 67 67 68 68 68 69 69 70 70 70 69 69 69 68 67 66 66 65 65 65 65 65 64 64 64 64 63 63 63 62 62 61 61 60 59 58 57 56 55 54 53 52 51 51 50 50
64 64 64 64 64 64 64 64 64 65 65 66 66 67 68 68 69 69 70 71 71 71 72 72 72 72 71 71 70 69 69 68 67 66 66 65 66 66 66 67 68 68 69 69 69 69 70 70 70 70 69 69 68 68 67 66 66 65 65 65 65 65 64 64 63 63 63 62 61 61 60 59 59 58 57 56 55 54 53 53 52 51 50 49 49 48
63 63 63 63 63 63 64 64 65 65 66 66 67 68 68 69 69 70 71 71 71 71 71 72 72 71 71 70 69 68 67 67 66 66 66 66 66 67 67 68 69 69 70 70 70 70 70 69 69 69 69 68 68 67 67 66 66 65 65 65 65 65 64 63 62 62 61 61 59 59 58 57 57 56 55 55 54 53 52 51 50 50 49 48 48 47
62 62 62 63 63 64 64 65 66 66 67 67 68 68 69 69 70 70 71 71 71 71 71 71 71 71 70 70 68 67 66 66 66 66 66 66 67 68 68 69 69 70 70 70 70 70 69 69 68 68 68 67 67 67 66 66 66 65 65 65 65 65 65 63 61 60 59 58 57 56 55 55 55 54 54 53 53 52 51 50 50 49 48 48 47 47
61 61 62 63 64 64 65 66 66 67 67 68 68 69 69 69 70 70 70 71 71 71 71 71 70 70 69 68 67 66 66 66 66 66 67 67 68 68 69 70 70 70 70 70 70 70 69 68 68 67 67 66 66 66 66 66 66 66 66 65 65 65 64 62 61 59 57 56 55 54 53 53 53 53 53 52 52 51 51 50 49 49 48 47 47 47
61 62 63 63 64 65 66 67 67 68 68 68 69 69 69 69 69 70 70 71 71 71 70 70 69 69 68 67 66 66 66 66 67 67 68 68 69 69 69 70 70 70 70 69 69 68 68 68 68 67 66 66 66 66 66 66 66 66 66 65 64 63 62 60 59 57 55 54 53 52 52 52 52 52 52 52 51 51 50 49 49 48 48 47 47 46
62 62 63 64 65 66 67 67 68 68 68 69 69 69 69 69 69 70 70 70 71 70 70 69 68 68 67 67 66 66 67 67 67 68 68 69 69 69 70 70 70 69 69 69 68 68 67 67 67 67 66 66 66 66 66 66 66 66 65 64 63 62 60 58 56 55 53 53 52 51 51 51 51 52 52 52 51 50 50 49 48 47 47 46 46 46
63 64 64 65 66 67 67 68 68 68 69 69 69 69 69 69 70 70 70 70 70 69 69 68 67 67 67 67 67 67 68 68 68 69 69 69 70 70 69 69 69 68 68 68 67 67 67 66 66 66 66 66 66 66 66 65 65 65 64 63 62 60 58 56 54 53 52 51 51 51 51 51 51 51 51 51 50 50 49 48 47 46 46 46 45 45
64 65 65 66 67 67 68 68 68 68 68 69 69 69 69 69 70 70 70 69 69 68 68 67 67 67 67 67 68 68 69 69 69 69 70 70 69 69 69 68 68 67 67 67 67 66 66 66 66 66 66 66 66 66 66 65 64 64 63 61 60 58 56 54 52 51 51 51 51 50 50 50 50 50 50 50 50 49 48 47 46 45 45 45 45 44
65 66 66 67 67 68 68 68 68 68 69 69 69 69 69 69 69 69 69 68 68 67 67 67 67 67 68 68 69 69 69 70 70 70 69 69 69 68 68 68 67 67 66 66 66 66 66 66 66 66 66 65 65 65 65 64 63 62 61 59 58 56 54 53 51 50 50 50 50 50 50 50 49 50 50 50 49 49 48 47 46 45 44 44 44 44
66 66 67 67 67 68 68 68 68 69 69 69 69 69 69 69 68 68 67 67 67 67 67 67 67 68 69 69 70 70 70 70 70 70 69 68 68 67 67 67 66 66 66 66 66 66 66 67 66 66 65 64 64 64 64 63 62 60 59 57 55 54 53 52 51 50 50 50 49 49 49 49 49 49 49 49 49 48 48 46 45 44 43 43 43 44
66 66 67 67 67 67 68 68 69 69 69 69 69 69 68 68 67 67 66 66 66 67 67 67 68 69 69 70 70 70 70 70 70 69 68 68 67 67 67 66 66 66 66 66 66 66 67 67 67 66 65 64 62 62 62 61 60 59 57 55 53 52 51 51 50 50 49 49 49 48 48 48 48 48 48 48 48 48 48 46 45 44 43 43 43 43
Wind_Direction
295 295 295 295 295 295 295 295 295 295 295 295 295 295 296 296 296 296 297 297 296 296 295 295 296 296 297 298 299 299 300 301 303 304 306 307 309 310 310 310 309 309 310 310 311 312 312 312 312 312 312 312 311 311 310 309 307 306 304 301 298 295 293 292 291 292 292 293 294 294 295 295 296 297 298 298 300 301 302 303 305 306 308 309 311 313
294 295 295 295 294 294 294 294 294 294 294 295 295 295 295 295 295 295 296 295 295 294 294 294 295 296 297 297 298 299 300 301 302 304 305 307 308 309 309 309 308 308 309 310 310 311 311 312 312 312 312 311 311 310 309 308 307 306 304 302 299 296 293 291 290 290 291 292 293 293 294 294 295 296 296 297 298 299 300 301 302 304 305 307 309 311
294 294 294 294 294 294 294 294 294 294 294 294 294 294 294 294 295 295 294 294 293 293 293 294 295 296 296 297 297 298 299 301 302 303 305 306 308 308 308 308 308 308 308 309 310 310 311 311 311 311 311 311 311 310 309 308 307 306 304 302 300 297 294 291 290 289 289 290 291 292 293 293 294 294 295 295 296 297 298 299 300 301 302 304 306 307
293 293 293 293 293 293 293 293 293 293 293 293 293 293 294 294 294 293 293 292 292 292 293 294 295 295 296 296 297 298 299 300 302 303 305 306 307 308 308 307 307 307 308 309 309 310 310 311 311 311 311 311 310 310 309 308 307 305 304 302 300 297 294 291 289 288 287 288 289 290 291 291 292 293 293 294 294 295 295 296 297 298 299 301 302 304
293 293 293 293 293 292 292 293 293 293 293 293 293 293 293 293 292 292 291 291 291 292 293 294 294 295 295 296 297 297 299 300 302 303 304 306 307 307 307 306 306 307 307 308 309 309 310 310 310 311 311 311 310 310 309 308 307 305 304 302 300 297 295 292 289 287 286 286 287 288 289 290 290 291 291 292 292 292 293 294 294 295 296 297 299 300
292 292 292 292 292 292 292 292 292 292 292 292 292 292 292 291 291 290 290 290 291 292 293 294 294 294 295 295 296 297 299 300 302 303 304 305 306 306 306 306 306 306 307 308 308 309 309 310 310 310 311 311 311 310 310 309 307 306 304 302 300 298 295 292 289 286 285 284 285 286 287 287 288 289 289 290 290 290 291 291 292 292 293 294 295 296
292 292 292 291 291 291 291 291 291 291 291 291 291 291 290 290 289 289 289 290 291 292 293 293 294 294 294 295 296 297 299 300 302 303 304 305 306 306 305 305 305 306 307 307 308 309 309 310 310 310 311 311 311 310 310 309 308 306 304 302 300 298 295 292 289 287 284 283 283 283 284 285 286 287 287 288 288 288 288 289 289 289 290 291 291 292
291 291 291 291 291 291 291 291 291 291 290 290 290 289 289 288 288 288 289 290 291 292 293 293 293 293 294 295 296 297 299 300 301 303 304 304 305 305 304 304 305 306 306 307 308 308 309 309 310 310 310 311 311 310 310 309 308 306 304 302 300 298 296 293 290 287 284 282 281 281 282 283 284 285 285 286 286 286 286 286 286 286 287 287 288 288
290 290 290 290 290 290 290 290 290 290 289 289 288 287 287 287 287 288 289 290 291 292 292 293 293 293 294 295 296 297 299 300 301 302 303 304 304 304 304 304 304 305 306 306 307 308 308 309 309 310 310 310 310 310 309 309 307 306 304 302 300 298 295 293 290 287 284 282 281 280 280 281 282 283 284 284 284 285 284 284 284 284 284 284 284 285
290 290 290 290 290 289 289 289 289 288 288 287 287 286 286 286 287 288 290 291 291 292 292 292 293 293 294 295 296 297 299 300 301 302 303 303 303 303 303 303 304 304 305 306 306 307 308 308 309 309 310 310 310 310 309 308 307 305 304 302 300 297 295 293 290 287 285 282 280 279 279 279 280 281 282 283 283 283 283 283 282 282 282 282 281 282
289 289 289 289 289 289 288 288 287 287 287 286 285 285 285 286 287 289 291 291 292 291 291 292 292 293 294 295 296 297 299 300 301 302 302 302 302 302 302 303 303 304 305 305 306 307 307 308 308 309 309 310 310 309 309 308 306 305 303 301 299 297 295 292 290 287 285 282 280 279 278 278 279 279 280 281 281 281 281 281 281 280 280 280 279 279
288 288 288 288 288 288 287 287 286 286 285 284 284 284 285 287 289 290 291 291 291 291 291 291 292 293 294 295 296 298 299 300 301 301 302 302 302 302 302 302 303 304 304 305 305 306 307 308 308 309 309 309 309 309 308 307 306 304 303 301 299 296 294 292 289 287 285 282 280 279 277 277 277 278 279 279 280 280 280 280 279 279 278 278 277 277
288 288 288 287 287 286 286 285 285 284 283 283 283 284 286 288 290 291 291 291 290 290 291 291 292 293 294 295 296 297 299 300 300 301 301 301 301 301 302 302 303 304 304 305 305 306 307 307 308 308 309 309 309 308 308 307 305 304 302 300 298 296 294 292 289 287 285 282 280 279 277 277 276 277 277 278 278 279 279 279 278 278 277 277 276 276
287 287 287 286 285 285 284 283 283 282 282 283 284 286 288 289 290 290 290 290 290 290 291 291 292 293 294 295 296 297 298 299 300 300 301 301 301 301 302 302 303 304 304 305 305 306 307 307 308 309 309 309 309 308 307 306 305 303 302 300 298 296 294 292 290 287 285 283 281 279 278 277 276 276 276 277 277 277 278 277 277 277 276 276 275 274
286 286 285 284 284 283 282 282 281 281 282 284 285 287 289 289 289 289 289 289 289 290 290 291 292 293 294 295 296 297 298 299 300 300 300 300 301 301 302 302 303 304 304 305 305 306 307 307 308 309 309 309 308 308 307 306 305 303 301 300 298 296 294 292 290 288 286 283 281 280 278 277 276 276 276 276 276 276 277 277 276 276 276 275 274 274
285 284 283 282 282 281 281 281 281 281 283 285 287 288 289 289 289 288 288 288 289 289 290 291 292 293 294 295 296 297 298 299 299 300 300 300 300 301 302 302 303 304 304 305 306 306 307 308 308 308 309 308 308 307 307 305 304 303 301 299 298 296 294 292 291 288 286 284 282 281 279 278 277 276 276 276 276 276 276 276 276 275 275 275 274 273
283 282 282 281 280 280 280 280 281 282 284 286 287 288 288 288 287 287 287 288 289 289 290 291 292 293 294 296 297 297 298 299 299 299 300 300 300 301 302 302 303 304 304 305 306 306 307 308 308 308 308 308 308 307 306 305 303 302 301 299 298 296 294 293 291 289 287 285 283 282 280 279 278 277 276 276 276 276 276 276 275 275 275 274 274 273
281 281 280 279 279 279 279 281 282 284 285 287 287 287 287 286 286 287 287 288 288 289 290 291 292 293 295 296 297 298 298 299 299 299 299 300 300 301 302 303 303 304 304 305 306 306 307 307 308 308 308 308 307 306 305 304 303 301 300 299 297 296 294 293 291 290 288 286 284 283 281 280 279 278 277 277 276 276 276 275 275 275 275 274 274 273
280 279 278 278 278 279 280 282 283 285 286 286 286 286 286 286 286 286 287 287 288 289 290 291 293 294 295 296 297 297 298 298 299 299 300 300 300 301 302 303 303 304 304 305 306 306 307 307 308 308 307 307 306 305 304 303 302 301 299 298 297 296 294 293 292 290 288 287 285 284 282 281 280 279 278 277 277 276 276 276 275 275 275 274 274 273
278 277 277 277 278 279 281 283 284 285 285 285 285 285 285 285 286 286 287 287 288 289 291 292 293 294 295 296 297 297 298 298 299 299 299 300 301 301 302 303 303 304 304 305 306 306 307 307 307 307 307 306 306 305 303 302 301 300 299 298 297 295 294 293 292 290 289 287 286 285 283 282 281 280 279 278 278 277 276 276 276 275 275 274 274 273
276 276 276 277 279 281 282 284 284 284 284 284 284 284 284 285 285 286 287 288 289 290 291 292 293 295 295 296 296 297 298 298 299 299 300 300 301 301 302 303 303 304 304 305 306 306 307 307 307 307 306 306 305 304 303 301 300 299 298 297 296 295 294 293 292 290 289 288 287 286 284 283 282 281 280 279 279 278 277 277 276 276 275 275 274 274
275 275 277 279 280 282 283 284 284 283 283 283 283 284 284 285 285 286 287 288 290 291 292 293 294 295 295 296 296 297 298 298 299 299 300 300 301 302 302 303 304 304 304 305 305 306 306 306 306 306 305 305 304 303 302 301 300 299 298 297 296 295 294 293 292 291 289 288 287 286 285 284 283 282 281 280 280 279 278 278 277 277 276 275 275 274
274 276 278 280 281 282 282 283 282 282 282 282 283 283 284 285 286 287 288 289 290 291 293 293 294 295 295 296 296 297 298 298 299 299 300 301 301 302 303 303 304 304 304 305 305 306 306 306 306 305 305 304 303 302 301 300 299 298 297 297 296 295 294 293 292 291 290 288 287 286 285 284 284 283 282 281 281 280 279 279 278 277 277 276 275 275
276 277 279 280 281 281 281 281 281 281 281 281 282 282 283 285 286 287 288 289 291 292 293 294 294 295 295 296 296 297 298 298 299 300 301 301 302 302 303 303 304 304 304 305 305 306 306 305 305 304 304 303 302 301 300 299 299 298 297 296 295 294 293 292 292 291 290 289 288 287 286 285 284 283 283 282 281 280 280 279 279 278 277 277 276 275
277 279 280 280 280 280 280 279 280 280 280 281 281 282 283 285 286 287 289 290 291 292 293 294 294 295 295 296 297 297 298 299 299 300 301 302 302 302 303 303 304 304 304 305 305 305 305 305 304 304 303 302 301 301 300 299 298 297 297 296 295 294 293 293 292 291 290 289 288 287 286 285 285 284 283 282 282 281 280 280 279 278 278 277 276 276
278 279 279 279 278 278 278 278 278 279 279 280 281 283 284 286 287 288 289 291 292 293 293 294 294 295 296 296 297 298 298 299 300 301 301 302 302 302 303 303 304 304 304 305 305 305 305 304 304 303 302 302 301 300 299 299 298 297 297 296 295 294 294 293 292 291 290 289 288 288 287 286 285 284 284 283 282 281 281 280 279 279 278 277 277 276
278 278 277 277 277 277 277 277 278 278 279 281 282 284 285 287 288 289 290 291 292 293 293 294 294 295 296 297 297 298 299 299 300 301 301 302 302 302 303 303 304 304 304 304 304 304 304 303 303 302 302 301 301 300 299 299 298 298 297 296 295 295 294 293 292 291 291 290 289 288 287 287 286 285 284 284 283 282 281 281 280 279 278 278 277 276
277 276 276 276 276 276 276 277 278 279 280 282 283 284 286 287 289 290 291 292 293 293 293 294 294 295 296 297 298 298 299 300 300 301 301 302 302 302 302 303 303 304 304 304 304 303 303 303 302 302 302 301 300 300 299 299 298 298 297 296 296 295 294 293 293 292 291 290 289 289 288 287 287 286 285 285 284 283 282 281 281 280 279 278 277 276
275 274 274 274 275 275 276 277 278 280 281 283 284 285 286 288 289 290 291 292 292 293 293 294 295 296 296 297 298 298 299 299 300 300 301 301 301 302 302 303 303 303 303 303 303 303 302 302 302 302 301 301 301 300 300 299 299 298 297 297 296 295 295 294 293 292 291 291 290 289 289 288 287 287 286 286 285 284 283 283 282 281 280 279 278 277
273 273 273 273 274 275 276 277 279 280 282 283 285 286 287 289 290 291 291 292 292 293 293 294 295 296 296 297 298 298 299 299 300 300 301 301 301 302 302 303 303 303 303 303 303 302 302 301 301 301 301 301 300 300 300 299 299 298 298 297 296 296 295 294 293 293 292 291 290 290 289 288 288 287 287 286 286 285 284 284 283 282 281 280 279 278
272 272 273 273 274 275 277 278 280 282 283 284 286 287 289 290 290 291 291 292 292 293 294 295 295 296 297 297 298 299 299 299 300 300 301 301 301 302 302 303 303 302 303 302 302 302 301 301 301 301 301 300 300 300 300 299 299 298 298 297 297 296 295 294 294 293 292 291 291 290 289 289 288 288 287 287 286 286 285 284 284 283 282 281 280 279
272 273 274 275 276 277 279 280 282 283 285 286 287 289 290 290 291 291 292 292 293 294 294 295 295 296 297 297 298 299 299 299 300 300 301 301 301 302 302 302 302 302 302 302 302 301 301 301 301 301 300 300 300 300 299 299 299 298 298 297 297 296 295 295 294 293 292 292 291 290 290 289 289 288 288 287 286 286 285 284 284 283 282 282 281 280
273 274 275 276 278 280 281 282 284 285 286 288 289 290 290 291 291 292 292 293 293 294 294 295 296 296 297 298 298 298 299 299 300 300 301 301 301 302 302 302 302 302 302 301 301 301 301 301 301 300 300 300 300 299 299 299 298 298 298 297 297 296 295 295 294 294 293 292 292 291 290 290 289 289 288 287 287 286 285 284 284 283 282 282 281 280
274 275 277 278 280 282 283 284 285 287 288 289 290 290 291 291 291 292 292 293 294 294 295 295 296 297 297 298 298 298 299 299 300 300 301 301 301 301 302 302 301 301 301 301 301 300 300 300 300 300 300 300 299 299 299 298 298 298 297 297 296 296 295 295 294 294 293 293 292 292 291 291 290 289 288 288 287 286 285 284 284 283 282 282 281 281
276 278 279 281 282 284 285 286 287 288 289 289 290 290 291 291 291 292 292 293 294 294 295 295 296 297 297 298 298 299 299 299 300 300 301 301 301 301 301 301 301 301 301 301 300 300 300 300 300 300 300 299 299 299 298 298 298 298 297 297 296 296 295 295 294 294 294 293 293 293 292 291 291 290 289 288 287 286 285 284 284 283 282 282 281 280
279 281 282 283 284 285 286 287 288 289 289 290 290 290 290 291 291 292 292 293 294 295 295 296 296 297 297 297 298 298 299 299 300 300 300 301 301 301 301 300 300 300 300 300 300 300 300 300 300 300 299 299 299 299 298 298 298 297 297 297 296 296 295 295 295 294 294 294 294 293 293 292 291 290 289 288 287 286 285 284 284 283 282 281 281 280
282 283 284 285 286 287 288 288 289 289 290 290 290 290 291 291 292 292 293 294 294 295 296 296 296 297 297 297 298 298 299 299 300 300 300 300 300 300 300 300 300 300 300 300 300 300 300 300 300 300 299 299 299 299 299 298 298 297 297 297 296 296 295 295 295 295 294 294 294 294 293 292 292 291 290 289 288 287 285 285 284 283 282 281 281 280
283 284 285 286 287 288 289 289 289 289 290 290 290 291 291 292 292 293 293 294 295 295 296 296 296 297 297 297 298 298 299 299 299 300 300 300 300 300 300 300 300 300 300 300 300 300 300 300 300 300 300 299 299 299 299 299 298 298 297 297 296 296 296 295 295 295 295 295 294 294 293 292 292 291 290 289 288 287 286 284 284 283 282 281 281 280
285 286 287 287 288 289 289 289 289 289 290 290 290 291 291 292 293 293 294 295 295 295 296 296 296 297 297 298 298 298 299 299 299 299 299 299 299 299 299 299 299 300 300 300 300 300 300 300 300 300 300 300 300 299 299 299 298 298 297 297 296 296 296 296 296 295 295 295 294 294 293 292 292 291 290 289 287 286 285 285 284 283 282 281 281 280
286 287 287 288 288 288 289 289 289 289 290 290 291 291 292 292 293 294 294 295 295 295 296 296 296 297 297 298 298 298 299 299 299 299 299 299 299 299 299 299 300 300 300 300 300 300 300 300 300 300 300 300 300 299 299 299 299 298 298 297 297 296 296 296 296 296 296 295 295 294 293 293 292 290 289 288 287 286 286 285 284 283 282 281 281 280
287 287 287 288 288 288 288 288 289 289 290 290 291 291 292 293 294 294 295 295 295 295 296 296 296 297 297 298 298 298 298 298 299 299 299 299 299 299 299 300 300 300 300 300 300 300 300 300 300 300 300 300 300 299 299 299 299 299 298 297 297 297 297 296 296 296 296 296 295 294 294 293 292 290 289 288 287 287 286 285 284 284 283 282 281 281
286 287 287 287 287 287 288 288 289 289 290 290 291 292 293 293 294 294 295 295 295 296 296 297 297 297 298 298 298 298 298 298 298 299 299 299 299 300 300 300 300 300 300 300 300 300 300 300 300 300 300 300 300 299 299 299 299 299 298 298 298 297 297 297 297 297 296 296 295 294 293 292 291 290 289 288 287 287 286 286 285 284 284 283 282 281
286 286 286 286 287 287 288 288 289 289 290 291 291 292 293 294 294 295 295 295 296 296 296 297 297 297 297 298 298 298 298 298 298 299 299 299 300 300 300 300 300 300 300 300 300 300 300 300 300 300 300 300 300 299 299 299 299 299 298 298 298 298 298 298 298 297 297 296 295 294 293 292 291 290 289 288 288 287 287 286 285 285 284 284 283 282
285 285 286 286 287 287 288 288 289 290 290 291 292 293 293 294 294 295 295 296 296 296 297 297 297 297 297 297 298 298 298 298 299 299 299 300 300 300 300 300 300 300 300 300 300 300 300 300 300 300 300 300 300 300 299 299 299 299 299 298 298 298 298 298 298 298 297 296 295 294 293 292 291 290 289 289 288 288 287 287 286 285 285 284 283 282
285 285 286 286 287 287 288 289 289 290 291 292 292 293 294 294 295 295 295 296 296 296 297 297 297 297 297 297 298 298 298 299 299 299 300 300 300 300 300 300 300 300 300 300 300 300 300 300 300 300 300 300 300 300 300 300 299 299 299 298 298 298 298 298 298 298 297 296 295 294 293 292 291 290 289 289 288 288 287 287 286 286 285 284 283 283
285 285 286 286 287 288 289 289 290 291 292 292 293 294 294 295 295 295 296 296 296 297 297 297 297 297 297 298 298 298 299 299 299 300 300 300 300 300 300 300 300 300 300 300 300 300 300 300 300 300 300 300 300 300 300 300 299 299 299 298 298 298 298 298 298 297 296 296 295 294 293 292 291 290 290 289 288 288 287 287 286 286 285 284 283 282
285 286 286 287 288 289 289 290 291 292 292 293 294 294 295 295 296 296 296 296 296 297 297 297 297 297 297 298 298 299 299 299 300 300 300 300 300 300 300 300 300 300 300 300 300 300 300 300 300 300 300 300 300 300 300 299 299 299 299 298 298 298 298 298 297 297 296 295 294 294 293 292 291 291 290 289 289 288 287 287 286 286 285 284 283 282
286 287 287 288 289 290 290 291 292 293 293 294 294 295 295 296 296 296 296 296 296 297 297 297 297 297 298 298 299 299 299 300 300 300 300 300 300 300 300 300 300 300 300 300 300 300 300 300 300 300 300 300 300 300 300 299 299 299 298 298 298 298 298 297 297 296 296 295 294 294 293 292 292 291 290 289 289 288 287 287 286 286 285 284 283 282
287 288 289 289 290 291 292 292 293 293 294 294 295 295 295 296 296 296 296 296 296 297 297 297 297 298 298 298 299 299 299 300 300 300 300 300 300 300 300 300 300 300 300 300 300 300 300 300 300 300 300 300 300 300 299 299 298 298 298 298 298 298 297 297 297 296 296 295 294 294 293 292 292 291 290 290 289 288 287 287 286 285 285 284 283 282
288 289 290 290 291 292 292 293 293 294 294 295 295 295 295 296 296 296 296 296 296 296 297 297 297 298 298 299 299 299 299 300 300 300 300 300 300 300 300 300 301 301 301 301 301 300 300 300 300 299 299 299 299 299 299 298 298 298 297 297 297 297 297 297 296 296 295 295 294 294 293 292 292 291 290 290 289 288 287 287 286 285 284 283 282 282
289 290 290 291 292 292 293 293 294 294 294 294 295 295 295 295 295 296 296 296 296 296 297 297 298 298 298 299 299 299 300 300 300 300 300 301 301 301 301 301 301 301 301 301 301 301 301 300 300 299 299 299 299 299 298 298 298 297 297 297 297 297 297 296 296 296 295 295 294 294 293 292 292 291 290 290 289 288 287 286 286 285 284 283 282 281
Height
10547 10545 10543 10542 10540 10538 10536 10535 10534 10533 10530 10529 10528 10527 10525 10523 10522 10520 10518 10517 10516 10515 10513 10512 10511 10510 10508 10507 10505 10503 10502 10500 10498 10497 10495 10494 10492 10490 10488 10487 10485 10483 10482 10480 10478 10477 10475 10473 10472 10470 10468 10466 10464 10462 10460 10458 10457 10455 10453 10452 10451 10450 10448 10448 10447 10446 10445 10444 10443 10442 10440 10440 10438 10437 10436 10435 10433 10432 10431 10430 10428 10427 10425 10424 10422 10421
10541 10540 10538 10536 10534 10532 10530 10529 10528 10527 10525 10523 10522 10521 10520 10518 10517 10515 10513 10512 10511 10510 10509 10508 10507 10506 10504 10503 10501 10500 10498 10497 10495 10493 10492 10490 10488 10487 10485 10483 10481 10480 10478 10476 10475 10473 10471 10469 10467 10466 10464 10462 10460 10458 10457 10455 10453 10451 10449 10448 10447 10445 10444 10443 10443 10442 10441 10440 10439 10438 10437 10436 10435 10434 10433 10432 10431 10430 10428 10427 10426 10425 10423 10422 10421 10420
10535 10533 10532 10530 10528 10527 10525 10523 10522 10522 10520 10518 10517 10516 10515 10513 10512 10510 10509 10508 10507 10505 10505 10504 10503 10502 10500 10499 10497 10496 10494 10493 10491 10490 10488 10486 10485 10483 10481 10479 10477 10475 10473 10472 10470 10468 10467 10465 10463 10462 10460 10458 10457 10455 10453 10451 10449 10447 10445 10443 10442 10441 10440 10439 10438 10438 10437 10437 10435 10435 10433 10433 10432 10430 10430 10428 10428 10427 10426 10425 10424 10423 10422 10420 10420 10418
10530 10528 10525 10524 10523 10521 10520 10518 10517 10515 10515 10513 10512 10510 10510 10508 10507 10505 10504 10503 10502 10501 10500 10500 10499 10498 10497 10495 10493 10492 10490 10488 10487 10485 10484 10482 10480 10479 10477 10475 10473 10472 10470 10468 10467 10465 10463 10461 10459 10457 10455 10454 10452 10450 10448 10447 10445 10443 10442 10440 10438 10437 10436 10435 10434 10433 10433 10433 10432 10431 10430 10429 10428 10427 10427 10426 10425 10424 10423 10422 10422 10420 10420 10418 10418 10417
10523 10522 10520 10518 10517 10515 10513 10513 10512 10510 10509 10508 10507 10505 10505 10503 10502 10501 10500 10498 10498 10497 10496 10495 10495 10493 10492 10491 10490 10488 10486 10485 10483 10482 10480 10478 10477 10475 10473 10471 10470 10468 10466 10464 10462 10460 10458 10457 10455 10453 10451 10449 10447 10445 10444 10442 10440 10438 10437 10435 10434 10433 10432 10431 10430 10430 10429 10428 10428 10427 10427 10426 10425 10424 10423 10423 10422 10422 10420 10420 10419 10418 10417 10417 10416 10415
10517 10516 10514 10513 10511 10510 10508 10507 10507 10505 10504 10503 10502 10501 10500 10498 10498 10497 10495 10495 10493 10493 10492 10491 10490 10489 10488 10487 10485 10483 10482 10480 10479 10477 10476 10474 10472 10471 10469 10467 10465 10463 10462 10460 10458 10456 10454 10452 10450 10448 10447 10445 10443 10441 10439 10437 10435 10434 10432 10431 10430 10428 10427 10427 10426 10425 10425 10425 10424 10423 10423 10422 10422 10421 10420 10420 10419 10418 10418 10417 10417 10416 10415 10414 10413 10413
10510 10510 10508 10507 10506 10504 10503 10502 10501 10500 10499 10498 10497 10496 10495 10494 10493 10492 10491 10490 10490 10489 10488 10487 10486 10485 10483 10482 10481 10480 10478 10477 10475 10473 10472 10470 10468 10467 10465 10463 10462 10460 10458 10456 10453 10452 10450 10448 10446 10444 10442 10440 10438 10436 10434 10432 10430 10429 10427 10426 10425 10423 10423 10422 10422 10421 10420 10420 10420 10420 10419 10418 10418 10418 10417 10417 10416 10415 10415 10414 10413 10413 10413 10412 10411 10410
10505 10503 10503 10502 10500 10499 10498 10497 10496 10495 10494 10493 10492 10491 10490 10489 10488 10488 10487 10486 10485 10485 10484 10483 10482 10480 10479 10478 10477 10475 10473 10472 10470 10469 10467 10466 10464 10463 10461 10459 10457 10455 10453 10452 10450 10448 10445 10443 10442 10440 10438 10436 10433 10432 10430 10428 10426 10424 10423 10421 10420 10419 10418 10417 10417 10416 10416 10415 10415 10415 10415 10415 10414 10414 10413 10413 10413 10412 10412 10411 10411 10410 10410 10409 10408 10408
10499 10498 10497 10496 10495 10494 10493 10492 10491 10490 10490 10488 10487 10487 10486 10485 10484 10483 10483 10482 10482 10481 10480 10478 10477 10475 10474 10473 10472 10470 10469 10468 10467 10465 10463 10462 10460 10458 10457 10455 10453 10452 10450 10448 10446 10443 10442 10440 10438 10436 10434 10432 10430 10428 10425 10423 10422 10420 10418 10417 10415 10415 10413 10413 10412 10412 10412 10411 10411 10411 10411 10410 10410 10410 10410 10409 10409 10408 10408 10408 10407 10407 10407 10407 10406 10405
10494 10493 10492 10490 10490 10489 10488 10487 10485 10485 10485 10484 10483 10482 10482 10481 10480 10479 10478 10477 10477 10477 10476 10475 10473 10471 10470 10468 10467 10466 10465 10463 10462 10461 10459 10458 10456 10455 10453 10452 10450 10448 10446 10444 10442 10440 10438 10436 10434 10432 10430 10428 10426 10423 10422 10420 10418 10416 10414 10413 10412 10410 10409 10408 10408 10407 10407 10407 10407 10407 10407 10407 10406 10406 10405 10405 10405 10405 10405 10404 10404 10403 10403 10403 10403 10403
10488 10487 10487 10485 10484 10483 10483 10482 10481 10480 10480 10479 10478 10478 10477 10477 10476 10475 10474 10473 10472 10472 10472 10470 10469 10467 10465 10463 10462 10462 10460 10459 10457 10456 10455 10453 10452 10450 10449 10448 10446 10444 10442 10440 10438 10436 10434 10432 10430 10428 10426 10424 10422 10420 10417 10415 10413 10412 10410 10408 10407 10406 10405 10404 10403 10403 10402 10402 10402 10402 10402 10402 10402 10402 10402 10401 10401 10401 10400 10400 10400 10400 10400 10400 10400 10400
10483 10482 10482 10480 10479 10478 10478 10477 10477 10476 10475 10475 10474 10473 10472 10472 10472 10472 10470 10468 10468 10467 10467 10465 10465 10463 10462 10460 10458 10457 10456 10455 10453 10452 10450 10448 10447 10446 10445 10443 10442 10440 10438 10436 10434 10432 10430 10428 10426 10424 10422 10420 10417 10415 10413 10411 10409 10407 10406 10404 10403 10402 10401 10400 10399 10398 10398 10398 10398 10398 10398 10398 10398 10397 10397 10397 10397 10397 10397 10396 10396 10396 10396 10396 10396 10396
10478 10477 10476 10475 10474 10473 10473 10473 10472 10472 10471 10470 10470 10469 10468 10468 10467 10467 10466 10465 10463 10463 10462 10460 10459 10458 10457 10456 10454 10453 10451 10450 10448 10447 10446 10444 10443 10441 10440 10438 10437 10435 10433 10431 10429 10427 10425 10423 10422 10420 10417 10415 10413 10411 10408 10407 10405 10403 10402 10400 10399 10398 10397 10396 10395 10395 10394 10393 10393 10393 10393 10393 10393 10393 10393 10393 10393 10392 10392 10392 10392 10392 10392 10392 10392 10392
10473 10472 10471 10470 10470 10469 10468 10468 10468 10467 10467 10466 10465 10465 10464 10463 10463 10463 10462 10460 10459 10458 10457 10456 10454 10453 10452 10451 10450 10449 10447 10445 10444 10442 10441 10440 10438 10437 10435 10433 10432 10430 10428 10426 10424 10422 10420 10418 10417 10415 10413 10410 10408 10406 10404 10402 10400 10398 10397 10396 10395 10393 10392 10392 10391 10390 10390 10390 10389 10389 10389 10389 10389 10388 10388 10388 10388 10388 10388 10388 10387 10387 10387 10387 10387 10387
10468 10467 10467 10465 10465 10464 10464 10464 10463 10463 10462 10462 10462 10461 10460 10460 10459 10458 10458 10456 10455 10453 10452 10451 10449 10448 10447 10446 10445 10444 10443 10441 10440 10438 10436 10435 10433 10432 10430 10428 10427 10425 10423 10422 10419 10417 10415 10413 10412 10410 10407 10405 10403 10402 10400 10398 10396 10394 10393 10392 10390 10389 10388 10387 10387 10386 10386 10385 10385 10385 10385 10385 10384 10384 10384 10384 10383 10383 10383 10383 10383 10383 10383 10383 10383 10383
10463 10463 10462 10461 10460 10460 10460 10460 10459 10458 10458 10458 10457 10457 10456 10455 10455 10454 10453 10452 10450 10449 10448 10446 10444 10442 10441 10441 10441 10440 10438 10437 10435 10433 10432 10430 10428 10427 10426 10423 10422 10420 10418 10417 10414 10412 10410 10408 10407 10405 10402 10400 10398 10397 10395 10393 10392 10390 10388 10387 10386 10385 10384 10383 10382 10382 10382 10381 10380 10380 10380 10380 10380 10380 10380 10379 10379 10379 10378 10378 10378 10378 10378 10378 10378 10378
10458 10458 10457 10457 10456 10455 10455 10455 10455 10455 10454 10454 10453 10453 10452 10451 10450 10450 10449 10447 10446 10445 10443 10442 10440 10438 10436 10435 10435 10435 10434 10432 10430 10429 10428 10425 10423 10422 10421 10419 10417 10414 10412 10411 10409 10407 10405 10403 10402 10400 10397 10395 10393 10392 10390 10388 10387 10385 10384 10383 10382 10380 10380 10379 10378 10378 10377 10377 10376 10376 10376 10375 10375 10375 10375 10375 10374 10374 10374 10373 10373 10373 10373 10373 10373 10373
10454 10453 10453 10452 10452 10451 10451 10451 10451 10450 10450 10450 10449 10448 10448 10447 10447 10445 10444 10443 10441 10440 10438 10437 10436 10435 10433 10430 10428 10428 10429 10428 10425 10423 10423 10420 10418 10417 10416 10414 10412 10410 10407 10405 10403 10402 10400 10398 10397 10395 10392 10390 10388 10387 10385 10383 10382 10381 10380 10378 10377 10376 10375 10375 10374 10373 10373 10372 10372 10372 10371 10371 10370 10370 10370 10370 10370 10369 10369 10369 10368 10368 10368 10368 10368 10368
10450 10450 10449 10448 10448 10447 10447 10447 10447 10447 10446 10445 10445 10445 10443 10443 10442 10441 10439 10438 10437 10435 10433 10432 10431 10430 10429 10427 10425 10423 10423 10423 10421 10418 10417 10415 10413 10412 10411 10409 10407 10404 10402 10400 10398 10397 10395 10393 10392 10390 10388 10385 10383 10382 10380 10379 10378 10377 10375 10374 10373 10372 10371 10370 10369 10368 10368 10367 10367 10367 10366 10366 10366 10365 10365 10365 10365 10364 10364 10364 10363 10363 10363 10363 10363 10363
10446 10445 10445 10445 10444 10443 10443 10443 10443 10442 10442 10442 10441 10440 10439 10438 10437 10436 10434 10433 10432 10430 10429 10428 10427 10425 10424 10422 10420 10419 10418 10417 10415 10413 10412 10410 10408 10407 10406 10404 10402 10399 10397 10395 10393 10392 10390 10388 10386 10385 10383 10380 10379 10377 10375 10374 10373 10372 10370 10370 10368 10367 10367 10365 10365 10364 10363 10363 10362 10362 10362 10361 10361 10360 10360 10360 10360 10359 10359 10358 10358 10358 10358 10358 10358 10358
10442 10442 10441 10441 10441 10440 10439 10438 10438 10438 10438 10438 10437 10436 10435 10433 10432 10431 10429 10428 10427 10425 10424 10423 10422 10420 10419 10417 10415 10414 10413 10412 10410 10408 10407 10405 10403 10402 10401 10399 10397 10394 10392 10390 10388 10387 10385 10383 10381 10379 10378 10375 10374 10372 10371 10369 10368 10367 10366 10365 10363 10363 10362 10361 10360 10360 10358 10358 10357 10357 10357 10356 10355 10355 10355 10354 10354 10354 10353 10353 10353 10353 10353 10352 10352 10352
10438 10438 10437 10437 10437 10436 10435 10435 10435 10435 10434 10433 10433 10431 10430 10428 10427 10425 10424 10423 10422 10420 10420 10418 10417 10416 10415 10413 10411 10409 10408 10407 10405 10403 10402 10400 10397 10396 10395 10393 10392 10389 10387 10385 10383 10381 10380 10378 10376 10374 10372 10371 10369 10367 10366 10365 10363 10362 10361 10360 10359 10358 10357 10356 10355 10355 10354 10353 10352 10352 10351 10350 10350 10350 10349 10349 10348 10348 10348 10348 10347 10347 10347 10347 10347 10347
10435 10434 10433 10433 10433 10432 10432 10431 10431 10430 10430 10429 10428 10427 10425 10424 10423 10421 10420 10418 10417 10416 10415 10413 10412 10412 10410 10408 10407 10405 10404 10403 10401 10399 10397 10394 10392 10390 10390 10388 10386 10383 10381 10380 10378 10376 10374 10372 10371 10369 10367 10365 10364 10362 10361 10360 10358 10357 10356 10355 10354 10353 10352 10351 10350 10350 10348 10348 10347 10347 10346 10345 10345 10344 10343 10343 10343 10342 10342 10342 10341 10341 10341 10340 10340 10340
10431 10430 10430 10430 10429 10428 10428 10427 10427 10427 10426 10425 10423 10422 10421 10420 10418 10417 10415 10414 10413 10412 10410 10409 10408 10406 10405 10403 10402 10400 10398 10398 10396 10394 10392 10389 10387 10385 10383 10382 10380 10377 10375 10374 10372 10370 10368 10367 10365 10364 10362 10360 10359 10357 10356 10355 10353 10352 10351 10350 10349 10348 10347 10346 10345 10344 10343 10342 10342 10341 10340 10340 10339 10338 10338 10337 10337 10337 10336 10335 10335 10335 10335 10334 10334 10334
10427 10427 10426 10426 10425 10425 10424 10423 10423 10422 10421 10420 10419 10418 10417 10415 10414 10413 10412 10410 10408 10407 10405 10404 10403 10401 10399 10398 10397 10395 10393 10393 10391 10389 10387 10383 10381 10379 10378 10377 10375 10372 10370 10368 10367 10365 10363 10361 10360 10358 10357 10355 10353 10352 10350 10349 10348 10347 10346 10345 10344 10343 10342 10341 10340 10339 10338 10337 10336 10335 10335 10333 10333 10332 10332 10332 10331 10330 10330 10329 10329 10328 10328 10328 10328 10327
10423 10423 10422 10422 10422 10421 10420 10420 10418 10418 10417 10415 10414 10413 10412 10411 10410 10408 10407 10405 10403 10402 10401 10399 10398 10396 10395 10394 10392 10390 10388 10387 10386 10384 10382 10379 10376 10373 10372 10371 10370 10367 10364 10363 10362 10360 10358 10355 10354 10353 10352 10350 10348 10347 10345 10343 10342 10342 10340 10340 10338 10337 10337 10335 10334 10333 10332 10331 10330 10329 10328 10328 10327 10326 10325 10325 10325 10324 10323 10323 10322 10322 10322 10321 10321 10321
10419 10419 10418 10418 10417 10417 10415 10415 10413 10413 10412 10411 10410 10409 10408 10407 10405 10403 10402 10400 10399 10398 10396 10394 10393 10391 10390 10389 10387 10385 10383 10382 10380 10378 10377 10375 10371 10368 10367 10365 10364 10362 10360 10357 10356 10355 10352 10350 10349 10348 10347 10345 10343 10342 10340 10338 10337 10336 10335 10333 10333 10332 10331 10330 10328 10327 10327 10325 10324 10323 10322 10321 10320 10320 10319 10318 10318 10317 10317 10316 10316 10315 10315 10315 10314 10314
10415 10415 10414 10413 10413 10412 10411 10410 10409 10408 10407 10406 10405 10405 10403 10402 10401 10398 10397 10396 10395 10393 10392 10390 10388 10387 10385 10384 10382 10380 10378 10377 10375 10373 10372 10370 10367 10363 10362 10360 10358 10357 10355 10352 10350 10349 10348 10345 10344 10342 10341 10339 10338 10336 10334 10333 10332 10330 10329 10328 10327 10326 10325 10324 10323 10322 10320 10320 10318 10317 10316 10315 10314 10313 10312 10312 10311 10310 10310 10309 10308 10308 10308 10307 10307 10307
10411 10410 10410 10409 10408 10407 10407 10405 10405 10403 10403 10402 10401 10400 10399 10398 10397 10395 10393 10392 10391 10388 10387 10385 10384 10382 10381 10379 10377 10376 10374 10372 10370 10368 10367 10364 10361 10358 10357 10355 10353 10352 10350 10347 10345 10343 10342 10340 10339 10338 10336 10334 10332 10330 10329 10327 10326 10325 10323 10322 10321 10320 10319 10318 10317 10316 10315 10313 10312 10311 10310 10309 10308 10307 10305 10305 10304 10303 10302 10302 10301 10300 10300 10300 10300 10299
10407 10406 10405 10404 10403 10403 10402 10401 10400 10400 10399 10398 10397 10395 10395 10394 10393 10391 10389 10388 10386 10384 10382 10380 10379 10378 10376 10374 10372 10370 10368 10366 10365 10363 10362 10359 10355 10353 10352 10350 10348 10346 10345 10342 10339 10337 10335 10335 10334 10333 10331 10329 10327 10325 10323 10322 10320 10319 10318 10317 10315 10314 10313 10312 10311 10310 10309 10308 10307 10305 10304 10303 10302 10300 10299 10298 10297 10296 10295 10294 10293 10293 10292 10292 10292 10291
10402 10401 10400 10400 10399 10398 10398 10397 10397 10396 10395 10393 10393 10392 10390 10389 10388 10387 10385 10383 10382 10380 10378 10376 10374 10373 10371 10370 10368 10365 10362 10360 10359 10358 10357 10353 10350 10348 10347 10345 10342 10340 10340 10338 10335 10332 10329 10328 10328 10328 10327 10325 10322 10320 10318 10317 10315 10313 10312 10311 10309 10308 10307 10306 10305 10303 10303 10302 10301 10300 10298 10297 10296 10295 10293 10292 10291 10290 10288 10287 10286 10285 10284 10283 10283 10283
10397 10396 10395 10395 10395 10394 10394 10393 10392 10392 10390 10389 10388 10387 10386 10384 10383 10382 10380 10378 10377 10375 10373 10372 10370 10368 10366 10365 10363 10360 10357 10355 10353 10352 10351 10348 10345 10343 10342 10340 10337 10335 10333 10332 10330 10328 10325 10322 10322 10322 10321 10320 10318 10316 10314 10312 10310 10308 10307 10305 10303 10302 10301 10300 10298 10297 10296 10295 10294 10293 10292 10291 10290 10288 10287 10286 10285 10283 10282 10280 10279 10278 10277 10276 10275 10274
10392 10392 10391 10391 10390 10390 10390 10388 10388 10387 10386 10385 10383 10382 10381 10379 10378 10377 10375 10373 10372 10370 10368 10367 10365 10362 10361 10359 10357 10355 10352 10350 10348 10347 10345 10343 10340 10337 10336 10335 10332 10330 10328 10327 10325 10323 10320 10318 10317 10315 10315 10314 10313 10311 10309 10307 10305 10303 10302 10300 10298 10296 10295 10293 10292 10290 10290 10288 10287 10287 10285 10284 10283 10282 10281 10279 10278 10277 10275 10273 10272 10271 10270 10268 10267 10267
10388 10387 10387 10387 10387 10386 10385 10384 10383 10382 10382 10380 10379 10378 10376 10375 10373 10372 10370 10368 10367 10366 10364 10362 10360 10358 10355 10353 10351 10349 10347 10345 10343 10342 10340 10338 10335 10332 10330 10329 10327 10325 10323 10320 10318 10317 10315 10313 10312 10310 10308 10308 10307 10307 10305 10302 10300 10298 10297 10295 10292 10290 10288 10287 10286 10284 10283 10282 10280 10279 10278 10277 10276 10275 10273 10272 10271 10270 10268 10267 10265 10264 10263 10262 10260 10259
10383 10383 10383 10383 10382 10381 10380 10380 10378 10378 10377 10375 10375 10373 10372 10370 10368 10367 10365 10363 10362 10361 10359 10357 10355 10353 10351 10348 10346 10343 10341 10339 10338 10336 10334 10332 10330 10327 10325 10323 10322 10320 10318 10315 10313 10312 10309 10307 10306 10305 10303 10302 10301 10300 10300 10297 10295 10293 10291 10289 10287 10285 10283 10281 10280 10278 10276 10275 10273 10272 10271 10270 10268 10267 10266 10265 10264 10263 10262 10260 10258 10257 10256 10255 10253 10252
10380 10379 10378 10378 10377 10376 10375 10374 10373 10373 10372 10370 10369 10368 10367 10365 10364 10362 10360 10359 10357 10355 10354 10352 10350 10348 10346 10344 10342 10339 10337 10334 10333 10331 10329 10327 10325 10323 10320 10318 10317 10315 10313 10310 10308 10306 10304 10302 10300 10299 10297 10295 10294 10293 10293 10292 10290 10288 10285 10283 10282 10279 10277 10275 10273 10272 10270 10268 10267 10265 10264 10263 10261 10260 10258 10258 10257 10255 10254 10253 10252 10250 10249 10248 10247 10246
10375 10375 10373 10373 10372 10371 10370 10369 10368 10367 10366 10365 10364 10363 10362 10360 10358 10357 10356 10354 10352 10350 10348 10347 10344 10342 10340 10338 10337 10335 10332 10330 10328 10325 10323 10322 10320 10318 10315 10313 10312 10310 10308 10305 10303 10300 10298 10297 10294 10292 10291 10290 10288 10287 10285 10285 10283 10282 10279 10277 10275 10273 10271 10269 10268 10266 10264 10262 10260 10259 10257 10256 10254 10252 10251 10250 10249 10248 10247 10246 10245 10244 10243 10242 10241 10240
10371 10370 10368 10368 10367 10366 10365 10363 10363 10362 10361 10360 10358 10357 10356 10355 10353 10352 10350 10349 10347 10345 10343 10341 10338 10337 10335 10333 10331 10329 10327 10325 10323 10320 10318 10317 10315 10313 10310 10308 10306 10305 10303 10300 10298 10295 10293 10290 10288 10286 10284 10283 10282 10280 10279 10278 10277 10275 10273 10272 10270 10267 10265 10263 10262 10260 10258 10256 10254 10252 10251 10249 10247 10245 10244 10243 10242 10240 10239 10238 10238 10237 10236 10235 10235 10234
10366 10365 10363 10363 10362 10360 10360 10358 10357 10357 10355 10355 10353 10352 10351 10349 10348 10347 10345 10343 10342 10340 10338 10335 10333 10331 10329 10327 10325 10323 10322 10320 10318 10315 10313 10312 10310 10308 10305 10303 10300 10298 10297 10295 10293 10290 10288 10285 10283 10280 10278 10276 10275 10273 10273 10272 10270 10268 10267 10265 10263 10262 10260 10258 10256 10254 10252 10250 10248 10246 10244 10242 10240 10238 10236 10235 10235 10233 10232 10231 10231 10231 10231 10230 10229 10229
10361 10360 10358 10357 10357 10355 10355 10353 10352 10352 10350 10349 10348 10347 10345 10344 10343 10341 10340 10338 10336 10334 10332 10330 10328 10325 10323 10322 10320 10318 10316 10314 10312 10310 10308 10306 10304 10302 10300 10298 10295 10293 10291 10289 10287 10285 10282 10280 10277 10275 10273 10270 10268 10267 10265 10265 10263 10262 10260 10258 10256 10255 10254 10252 10250 10248 10246 10244 10242 10240 10237 10235 10233 10232 10230 10228 10228 10226 10226 10225 10225 10225 10225 10225 10223 10223
10357 10355 10353 10352 10352 10350 10350 10348 10347 10347 10345 10344 10343 10342 10340 10339 10337 10335 10333 10332 10330 10328 10326 10324 10322 10320 10318 10317 10315 10313 10311 10308 10307 10305 10303 10301 10299 10297 10295 10292 10290 10288 10285 10283 10281 10278 10277 10274 10271 10268 10267 10265 10262 10260 10259 10258 10257 10255 10253 10251 10249 10248 10247 10246 10244 10242 10240 10238 10236 10233 10231 10229 10227 10225 10223 10222 10221 10220 10220 10220 10219 10219 10219 10219 10218 10218
10352 10350 10348 10348 10347 10345 10345 10343 10343 10342 10340 10340 10338 10337 10335 10333 10332 10330 10328 10325 10323 10322 10320 10318 10316 10313 10312 10310 10308 10307 10305 10303 10302 10299 10297 10295 10293 10292 10289 10287 10284 10282 10280 10277 10275 10272 10270 10268 10266 10263 10261 10259 10257 10254 10252 10251 10250 10249 10247 10244 10242 10241 10240 10239 10238 10237 10234 10231 10230 10228 10225 10223 10221 10219 10218 10216 10215 10215 10215 10214 10213 10213 10213 10213 10213 10213
10347 10345 10344 10343 10342 10341 10340 10338 10338 10337 10335 10334 10333 10332 10330 10328 10327 10325 10322 10320 10318 10315 10314 10312 10310 10308 10306 10303 10302 10302 10300 10298 10296 10294 10292 10290 10288 10286 10283 10281 10278 10276 10274 10272 10268 10266 10264 10262 10260 10258 10255 10253 10251 10249 10247 10245 10243 10242 10240 10238 10236 10234 10232 10231 10231 10231 10228 10226 10224 10221 10220 10217 10215 10213 10212 10211 10210 10209 10209 10208 10208 10208 10208 10208 10207 10207
10342 10341 10340 10338 10337 10336 10335 10333 10333 10332 10330 10329 10328 10326 10325 10323 10321 10319 10317 10314 10312 10310 10308 10306 10304 10302 10300 10298 10297 10295 10294 10292 10290 10288 10287 10284 10282 10280 10278 10275 10272 10270 10268 10266 10263 10260 10258 10256 10254 10252 10250 10248 10245 10243 10241 10239 10237 10235 10233 10232 10230 10228 10226 10225 10225 10223 10221 10220 10218 10216 10214 10211 10210 10208 10206 10205 10205 10204 10203 10203 10203 10203 10203 10202 10202 10201
10337 10336 10335 10334 10333 10332 10330 10328 10327 10327 10325 10323 10322 10320 10319 10317 10315 10313 10311 10308 10306 10304 10302 10300 10298 10296 10294 10292 10292 10290 10288 10287 10285 10283 10281 10278 10277 10275 10272 10270 10267 10264 10262 10260 10257 10255 10252 10250 10247 10245 10244 10242 10240 10238 10236 10233 10231 10229 10228 10226 10224 10222 10221 10220 10219 10217 10215 10214 10212 10211 10209 10206 10205 10203 10201 10200 10200 10199 10198 10198 10198 10198 10197 10197 10196 10196
10333 10332 10330 10329 10328 10327 10325 10323 10322 10321 10320 10318 10317 10315 10313 10312 10310 10307 10305 10303 10300 10298 10296 10295 10293 10291 10288 10287 10285 10284 10282 10280 10279 10277 10275 10273 10271 10268 10266 10264 10262 10259 10257 10254 10252 10249 10247 10245 10242 10240 10238 10236 10234 10232 10230 10228 10226 10223 10221 10220 10218 10216 10215 10215 10213 10212 10210 10208 10206 10205 10203 10201 10200 10198 10196 10195 10194 10193 10193 10193 10193 10192 10192 10191 10191 10190
10328 10327 10325 10324 10323 10322 10320 10318 10317 10315 10314 10312 10310 10309 10307 10306 10303 10301 10299 10297 10295 10293 10290 10289 10287 10285 10283 10282 10280 10278 10277 10275 10273 10271 10269 10267 10265 10263 10260 10258 10255 10253 10251 10248 10246 10243 10241 10239 10236 10235 10232 10230 10228 10226 10224 10223 10220 10218 10216 10214 10213 10211 10210 10209 10208 10206 10205 10203 10201 10200 10198 10196 10195 10193 10191 10190 10188 10188 10188 10188 10188 10188 10187 10186 10186 10185
10323 10322 10320 10318 10317 10316 10314 10313 10312 10310 10308 10307 10305 10303 10302 10300 10298 10295 10293 10291 10289 10287 10285 10283 10281 10280 10278 10276 10274 10273 10271 10269 10267 10265 10263 10261 10259 10257 10255 10252 10250 10247 10245 10243 10240 10238 10235 10233 10231 10229 10227 10225 10222 10220 10218 10216 10215 10213 10210 10209 10207 10206 10205 10203 10203 10201 10200 10198 10196 10195 10193 10191 10190 10188 10186 10185 10183 10183 10183 10183 10183 10183 10182 10181 10180 10180
10317 10316 10315 10313 10312 10310 10308 10307 10306 10304 10302 10301 10299 10297 10295 10294 10292 10290 10287 10285 10283 10282 10279 10277 10275 10273 10272 10270 10268 10267 10265 10263 10261 10259 10257 10255 10253 10251 10248 10247 10244 10242 10239 10237 10235 10232 10230 10227 10225 10223 10222 10220 10217 10215 10212 10210 10208 10207 10205 10204 10202 10201 10199 10198 10197 10196 10195 10193 10191 10190 10188 10186 10185 10183 10181 10180 10178 10177 10177 10177 10178 10178 10177 10176 10175 10175
10312 10310 10309 10308 10306 10305 10303 10302 10300 10298 10297 10295 10293 10292 10290 10288 10287 10285 10282 10280 10278 10276 10274 10272 10270 10268 10266 10264 10263 10261 10259 10257 10255 10253 10252 10250 10248 10245 10243 10240 10238 10236 10233 10231 10228 10226 10223 10221 10218 10217 10216 10215 10213 10210 10206 10205 10203 10201 10200 10199 10198 10196 10195 10193 10192 10191 10190 10188 10186 10185 10183 10181 10180 10178 10176 10175 10173 10172 10171 10171 10172 10172 10172 10171 10170 10169
10307 10305 10304 10302 10301 10299 10298 10296 10295 10293 10291 10290 10288 10286 10284 10282 10281 10279 10277 10275 10273 10271 10268 10267 10265 10263 10261 10258 10257 10255 10253 10252 10249 10247 10245 10243 10242 10240 10237 10235 10233 10230 10228 10225 10222 10220 10217 10215 10211 10210 10209 10210 10209 10206 10202 10200 10197 10196 10195 10193 10193 10191 10190 10188 10187 10186 10185 10183 10181 10180 10178 10177 10175 10173 10172 10170 10168 10166 10166 10166 10166 10167 10167 10167 10166 10165